Theta_e
324 321 314 321 324 326 329 328 327 330 333 333 331 328 333 332 336 332 332 335 337 331 326 320 316 313 312 311 313 314 313 313 313 313 312 312 312 312 311 312 313 314 317 320 321 321 320 325 329
323 316 320 323 324 329 326 326 327 330 336 334 330 331 334 336 334 336 335 337 338 334 324 320 316 314 314 312 314 314 314 314 313 313 313 313 313 313 313 314 315 320 328 328 329 330 331 332 332
319 324 320 326 326 326 326 327 336 333 332 333 335 330 333 336 335 335 336 336 340 337 324 320 316 316 315 313 314 315 315 314 314 314 314 314 314 314 314 315 317 322 330 331 333 335 335 335 335
323 323 319 326 330 329 326 330 329 330 330 333 335 333 330 333 335 335 336 338 339 329 323 321 317 316 317 314 313 315 316 315 315 315 315 315 315 316 316 317 320 322 329 334 335 337 337 338 337
324 319 323 326 327 328 329 328 326 327 331 336 335 332 332 333 335 336 336 338 337 328 324 322 318 316 317 315 313 315 316 316 315 316 316 316 316 317 318 319 321 325 334 336 337 337 338 338 336
321 320 325 326 326 327 327 326 326 331 335 336 335 330 332 334 336 337 338 338 337 327 324 322 319 317 317 317 315 314 315 316 316 316 316 317 317 318 319 320 321 327 333 336 338 338 336 334 332
322 322 325 325 327 326 327 326 328 326 332 334 332 334 329 330 336 336 336 337 338 331 325 323 320 317 317 318 316 313 314 316 317 317 317 318 318 319 320 321 322 325 328 332 337 338 334 334 330
322 321 325 323 325 326 326 326 326 326 328 328 331 333 330 328 335 339 339 339 338 334 327 324 321 317 317 318 317 315 313 315 317 317 318 318 319 320 321 322 323 324 326 330 332 332 330 332 330
321 323 323 324 323 325 323 323 326 326 328 328 328 329 329 330 333 336 341 341 339 337 331 327 324 320 318 318 317 317 314 314 315 317 317 318 320 320 322 322 323 324 323 329 333 332 330 331 331
330 328 326 322 322 323 323 323 323 325 327 327 328 329 330 331 330 329 328 334 337 339 337 333 328 323 320 322 322 319 317 315 314 316 317 319 320 320 322 323 324 324 325 329 334 334 332 331 330
330 335 329 326 324 327 327 325 323 325 326 325 328 328 327 327 327 327 328 329 333 336 337 337 335 330 326 325 326 323 322 321 318 316 317 320 322 322 325 324 325 326 330 334 335 336 334 331 330
329 330 332 332 332 331 329 328 326 324 325 325 326 326 326 326 324 324 326 328 328 330 333 335 336 337 333 328 327 326 325 324 324 321 320 321 324 324 324 325 324 325 333 335 335 335 335 331 330
323 326 326 329 330 330 328 329 328 327 326 327 327 326 325 324 323 325 326 328 329 326 326 330 335 337 338 335 331 330 327 327 329 328 326 323 324 325 324 325 324 325 334 336 336 335 335 331 331
314 316 319 320 320 322 325 326 327 327 327 326 325 324 322 322 322 323 324 325 326 327 328 327 329 334 338 338 336 335 334 333 333 331 330 329 327 326 323 324 323 326 337 338 334 334 333 332 332
312 313 314 315 315 317 321 322 324 324 324 324 324 323 322 321 321 321 324 325 326 326 327 326 326 331 336 337 338 338 337 337 336 334 332 331 331 328 324 324 324 333 338 333 333 334 332 332 332
315 313 315 316 316 317 319 324 323 323 325 325 324 323 322 321 321 323 324 325 326 326 327 327 326 327 334 338 338 339 339 339 338 337 336 334 332 330 330 329 326 339 337 333 334 333 331 331 331
313 319 318 318 317 318 319 323 323 321 322 322 322 322 322 323 321 323 324 325 326 327 327 326 327 327 332 338 339 340 339 340 340 339 339 336 333 333 333 332 332 337 335 335 334 333 332 331 331
316 317 318 320 319 319 320 321 321 321 321 321 320 321 321 321 321 322 323 324 324 325 325 326 327 328 332 338 341 341 340 341 341 341 340 338 338 339 337 334 338 335 334 335 334 333 332 332 331
312 314 316 318 318 320 320 320 320 320 320 320 321 321 321 321 320 321 322 324 324 325 325 326 327 328 330 337 340 340 341 342 342 342 341 340 341 340 338 339 337 333 334 334 334 333 332 331 330
310 311 312 314 315 315 315 318 317 318 320 319 319 320 320 320 320 320 320 321 323 324 326 326 328 329 334 337 340 341 340 341 342 343 343 343 342 341 340 337 333 334 334 334 333 332 330 329 329
310 311 312 313 314 313 313 314 314 314 315 317 319 319 319 319 319 319 318 320 324 327 328 329 331 334 341 341 343 341 340 339 337 340 341 340 339 339 332 331 332 335 334 332 332 331 330 328 327
307 310 312 314 313 315 313 315 313 314 314 315 314 316 315 316 318 317 318 317 324 328 331 335 338 341 343 343 343 339 335 333 334 335 335 333 333 336 332 334 335 334 333 332 331 330 330 328 325
308 308 311 312 312 313 313 313 313 313 313 313 314 315 314 316 316 315 315 316 324 330 335 341 343 345 345 344 342 339 336 335 334 333 333 334 334 334 335 335 333 332 331 330 329 329 328 328 327
306 307 309 310 311 313 313 314 313 312 314 314 314 314 315 314 314 314 316 320 332 335 341 343 345 345 345 344 342 341 339 335 333 333 333 334 335 334 334 333 332 331 330 329 329 329 328 328 328
305 304 306 311 312 314 313 313 314 313 314 314 313 313 313 313 313 317 330 331 334 338 342 344 344 341 343 343 342 340 338 335 334 333 334 334 334 334 333 333 332 331 328 329 328 329 328 328 328
302 303 306 312 315 312 313 315 315 314 314 314 314 313 313 313 312 316 330 333 336 338 339 340 340 337 340 340 337 335 333 334 334 334 334 334 333 333 332 332 332 330 328 329 329 329 329 328 328
309 304 304 305 307 308 313 313 314 315 315 314 313 313 312 313 322 330 333 336 338 337 337 338 337 335 334 333 333 333 333 333 333 333 333 333 333 332 332 332 329 329 330 330 329 329 328 327 328
307 309 305 303 309 312 312 313 315 314 314 314 314 313 312 327 332 333 336 336 336 336 336 336 335 334 333 333 333 333 334 334 333 333 333 332 332 329 328 329 329 330 331 331 330 328 328 329 328
307 310 310 305 307 311 312 313 313 314 314 315 314 314 314 330 333 336 336 334 335 335 334 334 333 333 333 333 333 334 334 333 333 332 332 331 329 329 329 329 331 331 331 330 330 330 329 328 326
307 310 310 309 311 308 310 311 312 312 311 311 314 317 325 333 334 336 335 334 334 333 333 333 333 333 333 332 332 334 333 333 332 331 332 330 330 330 329 331 331 330 330 331 330 329 329 328 324
Wind_Speed
6 4 4 3 3 4 4 7 3 4 1 4 5 4 11 8 8 5 4 30 18 30 36 35 30 28 25 24 22 21 20 19 18 17 16 15 14 12 11 10 9 9 8 7 6 5 4 2 2
6 6 1 2 4 3 5 6 7 5 3 6 4 1 2 2 2 3 9 29 18 30 37 36 33 30 27 26 25 23 22 21 20 18 17 16 14 13 12 10 9 9 8 7 6 5 4 3 3
7 3 3 4 4 5 5 4 1 4 5 5 4 1 6 4 2 10 4 30 22 31 37 36 34 32 30 29 28 26 25 23 21 19 17 17 16 14 13 11 10 10 9 8 7 6 5 5 5
6 2 3 2 7 6 5 3 6 10 9 5 2 4 1 4 8 13 15 27 28 33 35 35 35 35 33 32 30 28 27 25 24 22 19 17 16 15 14 12 10 10 9 9 8 7 7 7 7
3 2 2 3 6 4 4 8 8 11 5 3 3 1 0 5 6 15 26 31 32 34 36 36 35 35 33 32 31 30 29 27 26 23 21 19 17 15 14 12 10 10 10 10 8 8 8 11 11
2 3 0 6 6 1 5 6 5 6 2 5 3 8 4 8 13 18 30 32 30 33 36 37 36 36 36 34 33 33 32 30 28 25 23 21 19 17 15 12 11 10 10 10 10 9 10 11 12
5 3 4 4 3 4 4 3 4 4 3 6 1 7 3 4 20 22 26 30 30 32 35 38 39 39 38 37 36 36 34 33 30 28 25 23 21 19 16 13 11 10 10 8 9 11 10 11 12
4 4 3 5 3 5 5 3 4 6 3 7 8 3 4 5 16 19 22 26 28 31 34 39 41 42 42 41 40 38 36 34 33 31 29 27 24 22 19 16 14 12 11 10 9 10 10 12 12
5 2 5 7 8 5 5 9 4 3 2 7 8 4 6 16 20 20 19 23 26 29 32 36 40 43 44 44 43 40 38 37 35 34 33 31 29 26 22 20 16 14 12 12 11 10 10 12 12
5 5 9 8 10 4 5 2 14 7 4 4 8 7 8 10 17 15 15 21 29 35 37 38 41 44 45 44 42 42 41 40 40 39 37 35 33 29 25 22 18 17 15 14 13 13 12 12 12
7 10 17 12 10 6 8 8 4 11 11 8 6 13 6 11 10 12 20 24 33 45 37 42 44 45 45 45 43 43 44 44 44 43 40 38 35 31 28 25 21 20 17 17 16 17 16 15 14
6 11 15 13 10 3 12 8 11 13 16 10 13 9 8 11 9 10 16 26 31 36 42 45 47 46 47 45 44 44 46 48 47 47 43 40 38 35 32 28 23 22 20 19 17 19 18 17 15
16 9 6 11 13 12 12 19 17 17 15 18 16 10 10 11 11 20 23 28 31 22 29 38 42 48 49 47 45 45 47 48 46 44 45 43 42 37 34 29 25 25 22 20 20 20 19 18 16
2 6 18 14 14 8 12 20 16 17 16 15 15 15 11 11 11 13 20 22 22 27 32 32 37 44 46 49 52 50 45 45 41 43 44 43 42 37 35 30 28 28 23 21 20 19 20 19 18
5 9 10 11 4 7 4 23 27 21 19 19 15 13 12 11 12 12 20 22 32 39 36 31 32 37 41 45 48 47 44 41 41 40 40 39 40 37 35 29 31 27 23 20 19 20 19 20 18
4 5 15 15 14 6 7 34 7 8 14 22 17 14 9 12 11 18 24 29 37 40 36 33 29 34 40 41 43 44 42 39 38 37 37 36 34 35 31 30 27 26 21 21 20 20 18 19 19
5 15 15 11 6 8 16 32 12 10 11 16 13 11 12 15 12 19 33 39 43 42 40 38 31 33 38 39 38 38 38 36 35 33 33 32 29 29 26 26 27 20 18 19 21 21 19 19 20
10 15 4 4 4 10 18 31 19 14 11 17 16 15 16 17 19 24 36 40 40 40 38 33 32 30 32 34 33 31 30 30 30 29 29 27 26 24 22 23 23 19 17 18 20 20 19 21 22
8 4 2 2 7 13 19 26 21 16 17 21 22 20 20 21 14 24 28 37 34 32 29 29 28 28 27 28 27 27 27 27 26 26 26 23 23 21 21 21 21 18 18 19 19 18 18 20 16
10 9 8 5 10 4 10 19 14 11 14 12 15 17 15 12 13 18 22 25 31 35 31 27 28 27 27 28 27 14 25 25 24 23 22 22 22 21 19 21 22 20 19 18 16 17 13 9 10
7 11 10 7 9 16 13 20 15 13 12 14 18 16 11 11 14 14 12 18 22 23 28 29 28 25 25 21 18 15 19 22 19 21 22 23 22 28 19 21 23 20 19 16 14 14 15 9 10
15 4 8 5 5 10 5 18 20 19 21 16 10 17 10 11 14 9 11 9 17 27 19 20 20 21 20 21 25 31 21 17 19 26 24 21 22 27 20 22 22 16 13 12 10 10 13 10 9
8 12 9 12 10 3 6 5 23 12 17 20 22 19 13 19 14 13 11 10 16 17 16 17 18 20 23 24 28 30 27 16 20 19 19 19 20 20 21 18 15 12 10 9 9 10 11 13 9
4 4 9 10 3 5 10 8 27 12 19 19 14 10 16 11 11 10 9 9 11 18 19 21 23 23 25 25 26 26 23 17 18 17 18 18 18 18 17 14 11 9 8 9 9 11 10 12 13
4 3 1 1 4 12 12 11 25 7 2 6 8 10 11 11 10 7 7 7 10 17 22 25 27 26 24 23 21 18 18 17 18 18 19 20 18 16 14 12 10 9 7 8 9 10 11 12 14
7 9 4 6 4 5 14 13 10 16 21 17 11 10 9 10 9 9 7 7 9 16 21 23 27 26 24 23 20 19 19 18 18 19 19 16 14 10 10 10 10 8 8 8 10 11 11 11 12
3 4 6 3 3 2 5 15 17 20 15 15 9 8 11 11 7 6 7 9 14 17 21 27 29 27 26 26 24 23 21 21 20 16 13 11 8 8 9 10 9 9 8 7 9 10 9 10 11
6 4 4 1 4 5 6 8 12 3 11 18 11 8 10 6 6 7 9 10 14 19 24 28 30 31 30 28 25 22 20 18 15 13 12 10 9 9 10 9 8 8 7 8 9 10 9 10 11
1 2 2 3 5 4 4 6 7 11 8 6 11 13 9 9 9 10 10 10 17 21 23 25 30 31 29 25 22 21 19 16 14 12 12 11 12 9 8 7 7 6 7 8 10 10 9 8 8
4 4 3 3 8 5 1 10 9 10 7 8 15 15 10 9 10 11 11 10 15 18 21 25 29 29 27 23 20 19 17 15 13 12 13 13 11 9 7 6 5 5 5 7 8 8 7 9 9
Wind_Direction
197 251 179 103 79 70 260 260 238 271 239 235 253 158 174 178 162 209 173 177 183 182 179 182 177 180 178 174 172 169 167 165 163 162 159 158 160 161 162 167 171 170 169 168 166 168 169 196 226
181 162 142 95 109 123 253 245 228 237 247 269 93 40 61 218 262 127 129 176 184 181 181 182 180 183 182 180 179 177 176 175 172 171 168 166 168 168 169 171 178 179 181 180 181 181 199 213 229
164 173 116 152 166 182 227 235 274 302 280 279 121 157 144 209 284 153 184 178 183 182 184 185 183 187 188 186 186 185 184 182 180 179 177 176 175 174 175 179 185 187 189 197 204 214 221 235 242
168 50 7 151 225 247 217 313 303 317 310 251 131 86 180 220 170 175 180 179 181 182 187 190 189 192 193 192 192 191 191 189 188 187 185 184 183 180 182 184 187 194 197 206 219 232 249 253 254
135 67 223 242 243 238 260 274 289 293 251 255 136 200 143 317 172 181 179 184 184 186 193 194 195 196 199 199 198 198 198 196 196 194 192 191 191 189 191 191 195 200 205 212 225 240 255 263 261
76 111 124 240 243 283 260 254 265 267 273 271 159 130 201 205 190 186 183 189 191 191 195 198 200 201 204 204 205 205 203 201 202 201 199 197 198 198 199 198 202 205 215 219 226 242 252 266 270
143 126 214 253 269 316 262 274 227 289 248 258 180 136 268 242 197 191 190 196 199 200 200 201 203 204 208 210 210 210 209 207 206 207 207 206 204 205 207 208 210 215 225 230 239 249 260 262 267
145 125 241 237 189 268 249 232 187 69 323 310 144 186 236 227 208 197 195 201 205 208 209 207 208 208 210 213 213 214 215 213 211 212 213 212 210 211 209 214 216 221 229 233 245 250 265 269 273
139 124 226 227 167 228 331 353 268 355 6 340 319 150 218 167 193 194 202 211 215 220 217 214 214 213 214 216 215 216 217 218 218 218 218 217 214 213 213 215 221 227 233 238 244 249 259 269 271
173 182 224 215 213 195 298 322 295 325 12 307 308 8 348 174 172 180 190 214 217 221 223 220 221 220 219 219 218 217 218 220 221 220 220 221 219 216 216 219 223 232 239 241 250 253 256 261 264
205 217 228 247 230 252 260 280 255 294 296 220 258 300 228 259 245 214 206 214 215 224 224 229 226 225 221 220 221 219 221 222 223 224 222 221 222 219 217 219 223 231 234 238 242 243 247 254 259
249 220 230 258 248 252 254 273 250 255 258 289 271 258 265 289 225 238 236 229 222 231 232 235 233 228 226 223 222 222 223 224 224 225 223 221 222 220 219 221 225 233 233 237 246 243 244 250 255
246 240 243 247 255 251 268 265 260 253 262 277 276 271 267 262 265 266 243 239 246 237 234 233 234 231 229 224 224 227 227 226 224 225 225 222 225 222 222 223 228 235 233 236 242 242 240 246 251
140 225 245 255 266 252 259 267 263 261 262 261 266 266 250 247 248 260 275 273 277 274 270 256 233 230 227 227 227 228 230 228 225 226 227 225 225 223 225 226 230 235 234 236 238 239 234 240 251
259 289 279 239 208 241 357 269 254 250 265 268 263 257 260 249 249 242 258 270 282 288 285 267 247 232 227 227 226 226 230 226 226 225 227 228 227 229 227 228 233 234 230 233 230 234 240 250 250
222 187 245 261 229 221 165 258 237 228 237 256 263 263 257 260 257 268 273 278 284 281 271 266 256 235 228 225 225 226 228 229 228 228 230 229 229 230 228 227 232 231 229 232 228 227 243 246 233
235 238 231 262 212 207 205 261 259 260 254 261 269 264 274 279 284 283 287 283 281 276 273 270 256 234 228 222 224 225 225 226 228 229 231 226 222 223 221 225 228 223 224 226 224 228 233 230 240
222 230 274 209 226 208 229 253 253 250 267 271 270 272 270 274 275 278 274 274 275 278 275 271 253 228 220 222 220 220 222 223 224 227 223 217 213 215 215 217 213 215 229 222 223 228 232 243 254
315 344 273 337 219 217 231 254 257 255 253 256 259 262 264 265 270 268 268 272 276 279 273 252 233 214 215 210 200 205 201 207 212 216 214 210 209 205 205 207 219 222 229 232 232 235 250 259 247
259 268 273 276 269 277 277 277 283 271 254 244 246 250 252 267 271 272 270 270 276 271 264 236 221 218 211 205 200 195 199 199 202 201 202 203 204 196 197 219 224 228 228 233 249 255 257 249 221
230 231 251 247 307 298 307 286 282 257 245 250 256 256 254 240 253 265 273 263 269 257 245 223 211 204 199 190 173 160 164 162 159 173 176 177 187 191 208 217 220 231 238 244 248 251 233 217 201
257 220 258 254 207 257 190 286 274 270 263 252 244 255 251 247 252 247 258 266 245 243 229 212 194 189 187 184 171 156 152 153 165 173 180 187 199 205 210 211 223 231 233 234 239 234 223 215 197
245 233 238 226 245 237 249 293 272 227 257 249 240 248 248 250 251 250 251 246 251 228 208 191 173 171 169 172 173 164 165 153 158 167 177 187 200 203 206 210 215 220 228 235 231 221 219 219 206
238 219 230 233 155 251 220 202 277 247 244 247 238 216 236 242 247 249 257 245 198 186 177 171 159 162 163 166 167 172 169 153 149 154 166 175 178 184 195 203 215 221 223 220 220 222 227 228 227
170 87 306 174 187 231 209 198 236 270 304 236 244 248 251 258 268 252 220 184 153 150 154 156 160 154 157 159 163 167 168 172 169 167 166 165 172 186 200 212 213 209 210 218 221 225 229 229 231
182 167 185 185 179 225 248 230 238 232 257 259 264 247 253 258 248 244 204 158 148 139 144 148 149 143 151 154 157 164 162 160 165 166 166 171 188 206 214 212 202 204 215 218 223 226 223 221 227
202 168 193 12 224 244 243 258 278 274 277 279 285 282 264 255 241 191 143 144 140 138 141 148 144 145 145 145 140 141 147 149 151 158 169 180 192 188 182 185 185 206 211 216 221 221 221 222 229
161 196 88 10 218 236 253 254 235 276 249 271 278 277 273 238 161 141 139 135 127 135 144 147 147 144 142 140 140 141 145 150 153 158 168 175 172 162 164 173 197 201 211 221 229 228 224 229 224
348 184 208 172 181 224 295 258 193 204 238 283 295 299 260 203 165 148 137 132 130 135 142 141 142 144 143 142 142 144 149 154 154 160 164 166 157 159 172 190 199 209 218 233 238 233 231 215 202
250 287 137 172 231 249 251 261 306 282 334 320 308 317 302 157 144 140 136 134 134 137 143 144 146 147 147 148 150 156 158 158 159 162 163 162 167 168 170 178 184 196 216 235 235 231 213 202 205